Location: Vinland
(47.7731°N, 122.6974°W)
Time: 20:41:43
(UTC+00:00)

Vanguard 1 Rocket - Pass Details

Date: 28 March 2023
Orbit: 655 x 4220 km, 34.3° (Epoch: 05 June)

Event Time Altitude Azimuth Distance (km) Brightness Sun altitude
Rises 02:25:12 0° 178° (S) 8,248 12.2 0.6°
Reaches altitude 10° 02:35:38 10° 159° (SSE) 7,416 11.8 -1.2°
Maximum altitude 02:46:42 15° 133° (SE) 6,829 11.4 -3.0°
Drops below altitude 10° 02:56:46 10° 106° (ESE) 6,766 11.2 -4.7°
Enters shadow 03:00:54 - 96° (E) 6,912 11.2 -5.4°
